KK4XZ Weather Reports


Display with metric or nautical units.
time (UTC)temp
F
wind
direction
speed
MPH
gust
MPH
rain 1hr
in
rain 24hr
in
rain mn
in
humidity
%
barometer
mb
20260903093520 76 180 6.0 7.0 0.00 0.00 0.00 96 1016.9
20260903092535 76 182 5.0 6.0 0.00 0.00 0.00 96 1016.9
20260903091531 76 178 4.0 5.0 0.00 0.00 0.00 96 1016.8
20260903090525 76 175 4.0 6.0 0.00 0.00 0.00 96 1016.7
20260903085521 76 181 4.0 6.0 0.00 0.00 0.00 96 1016.5
20260903084516 77 179 5.0 7.0 0.00 0.00 0.00 96 1016.6
20260903083532 77 183 6.0 7.0 0.00 0.00 0.00 95 1016.6
20260903082526 77 186 4.0 6.0 0.00 0.00 0.00 95 1016.7
20260903081522 77 182 3.0 6.0 0.00 0.00 0.00 95 1016.7
20260903080517 77 175 5.0 7.0 0.00 0.00 0.00 95 1016.6
20260903075532 77 183 5.0 7.0 0.00 0.00 0.00 95 1016.5
20260903074527 77 181 4.0 4.0 0.00 0.00 0.00 95 1016.5
20260903073523 77 182 4.0 4.0 0.00 0.00 0.00 94 1016.3
20260903072518 78 182 4.0 4.0 0.00 0.00 0.00 94 1016.2
20260903071533 78 183 4.0 4.0 0.00 0.00 0.00 94 1016.1
20260903070528 78 184 4.0 5.0 0.00 0.00 0.00 94 1016.2
20260903065523 78 182 4.0 5.0 0.00 0.00 0.00 93 1016.2
20260903064518 78 181 4.0 5.0 0.00 0.00 0.00 93 1016.1
20260903063534 78 183 4.0 5.0 0.00 0.00 0.00 93 1016.1
20260903062529 79 186 4.0 5.0 0.00 0.00 0.00 92 1016.2
20260903061524 79 186 5.0 5.0 0.00 0.00 0.00 92 1016.3
20260903060519 79 185 4.0 5.0 0.00 0.00 0.00 91 1016.5
20260903055534 79 185 4.0 5.0 0.00 0.00 0.00 91 1016.6
20260903054530 79 189 5.0 6.0 0.00 0.00 0.00 91 1016.5
20260903053524 79 186 5.0 5.0 0.00 0.00 0.00 91 1016.6
20260903052520 79 183 5.0 5.0 0.00 0.00 0.00 90 1016.6
20260903051535 79 180 4.0 5.0 0.00 0.00 0.00 90 1016.5
20260903050530 79 185 4.0 5.0 0.00 0.00 0.00 90 1016.4
20260903045526 79 183 4.0 5.0 0.00 0.00 0.00 89 1016.6
20260903044521 80 185 4.0 5.0 0.00 0.00 0.00 88 1016.5
20260903043536 80 185 4.0 5.0 0.00 0.00 0.00 86 1016.5
20260903042531 81 181 5.0 7.0 0.00 0.00 0.00 86 1016.5
20260903041526 81 180 4.0 5.0 0.00 0.00 0.00 85 1016.4
20260903040521 81 183 5.0 6.0 0.00 0.00 0.00 83 1016.3
20260903035536 81 182 5.0 7.0 0.00 0.00 0.00 83 1016.3
20260903034531 82 186 5.0 6.0 0.00 0.00 0.00 82 1016.4
20260903033526 82 186 5.0 6.0 0.00 0.00 0.00 81 1016.4
20260903032521 82 185 6.0 8.0 0.00 0.00 0.00 82 1016.2
20260903031516 82 185 5.0 8.0 0.00 0.00 0.00 84 1016.4
20260903030531 82 187 6.0 8.0 0.00 0.00 0.00 84 1016.6
20260903025527 82 187 5.0 6.0 0.00 0.00 0.00 83 1017.0
20260903024521 82 186 5.0 7.0 0.00 0.00 0.00 83 1017.2
20260903023516 82 185 5.0 6.0 0.00 0.00 0.00 83 1017.4
20260903022532 82 187 5.0 7.0 0.00 0.00 0.00 82 1017.7
20260903021527 82 187 5.0 6.0 0.00 0.00 0.00 83 1017.8
20260903020522 82 188 5.0 7.0 0.00 0.00 0.00 84 1017.9
20260903015517 82 186 5.0 7.0 0.00 0.00 0.00 83 1017.9
20260903014532 82 182 5.0 6.0 0.00 0.00 0.00 82 1017.7
20260903013527 82 187 5.0 6.0 0.00 0.00 0.00 82 1017.7
20260903012522 82 185 5.0 6.0 0.00 0.00 0.00 83 1017.6
20260903011517 82 185 5.0 7.0 0.00 0.00 0.00 84 1017.4
20260903010533 82 187 5.0 6.0 0.00 0.00 0.00 83 1017.3
20260903005528 82 184 5.0 6.0 0.00 0.00 0.00 83 1017.1
20260903004523 82 184 6.0 7.0 0.00 0.00 0.00 83 1017.0
20260903003518 82 187 5.0 6.0 0.00 0.00 0.00 84 1017.0
20260903002534 82 185 5.0 6.0 0.00 0.00 0.00 84 1016.9
20260903001529 82 187 5.0 6.0 0.00 0.00 0.00 83 1016.7
20260903000524 82 185 5.0 6.0 0.00 0.00 0.00 83 1016.6
20260902235519 82 186 5.0 7.0 0.00 0.00 0.00 83 1016.6
20260902234534 83 186 5.0 6.0 0.00 0.00 0.00 82 1016.5
20260902233529 83 186 5.0 6.0 0.00 0.00 0.00 81 1016.4
20260902232524 83 184 5.0 7.0 0.00 0.00 0.00 81 1016.6
20260902231519 84 189 5.0 7.0 0.00 0.00 0.00 80 1016.6
20260902230535 84 187 5.0 8.0 0.00 0.00 0.00 78 1016.6
20260902225530 84 187 5.0 7.0 0.00 0.00 0.00 77 1016.7
20260902224525 84 187 6.0 9.0 0.00 0.00 0.00 75 1016.6
20260902223521 84 191 5.0 7.0 0.00 0.00 0.00 76 1016.6
20260902222536 85 188 5.0 7.0 0.00 0.00 0.00 77 1016.6
20260902221531 85 184 6.0 9.0 0.00 0.00 0.00 76 1016.4
20260902220526 85 190 6.0 9.0 0.00 0.00 0.00 74 1016.2
20260902215521 85 190 6.0 11.0 0.00 0.00 0.00 74 1016.2
20260902214517 85 191 6.0 9.0 0.00 0.00 0.00 72 1016.3
20260902213532 85 188 6.0 9.0 0.00 0.00 0.00 75 1016.3
20260902212528 86 191 6.0 9.0 0.00 0.00 0.00 73 1016.4
20260902211523 86 197 3.0 7.0 0.00 0.00 0.00 71 1016.5
20260902210518 86 133 5.0 11.0 0.00 0.00 0.00 70 1016.7
20260902205534 87 117 4.0 6.0 0.00 0.00 0.00 68 1016.6
20260902204529 88 122 4.0 8.0 0.00 0.00 0.00 68 1016.5
20260902203524 87 125 5.0 8.0 0.00 0.00 0.00 71 1016.6
20260902202519 88 134 5.0 9.0 0.00 0.00 0.00 68 1016.8
20260902201534 88 122 4.0 6.0 0.00 0.00 0.00 67 1016.8
20260902200529 89 114 4.0 9.0 0.00 0.00 0.00 66 1017.0
20260902195524 89 117 4.0 6.0 0.00 0.00 0.00 69 1017.1
20260902194520 88 126 4.0 8.0 0.00 0.00 0.00 68 1017.1
20260902193535 88 137 5.0 8.0 0.00 0.00 0.00 67 1017.2
20260902192530 88 136 5.0 10.0 0.00 0.00 0.00 67 1017.1
20260902191525 90 159 7.0 14.0 0.00 0.00 0.00 66 1017.2
20260902190520 90 154 7.0 12.0 0.00 0.00 0.00 66 1017.3
20260902185536 91 158 7.0 10.0 0.00 0.00 0.00 64 1017.2
20260902184531 92 146 8.0 10.0 0.00 0.00 0.00 64 1017.3
20260902183525 92 148 7.0 10.0 0.00 0.00 0.00 65 1017.3
20260902182520 92 152 7.0 9.0 0.00 0.00 0.00 65 1017.3
20260902181535 92 152 7.0 9.0 0.00 0.00 0.00 66 1017.4
20260902180530 91 153 8.0 11.0 0.00 0.00 0.00 63 1017.5
20260902175525 91 156 8.0 14.0 0.00 0.00 0.00 62 1017.5
20260902174520 91 155 8.0 12.0 0.00 0.00 0.00 63 1017.6
20260902173535 92 154 8.0 11.0 0.00 0.00 0.00 61 1017.5
20260902172531 92 152 7.0 11.0 0.00 0.00 0.00 60 1017.5
20260902171526 91 154 8.0 11.0 0.00 0.00 0.00 62 1017.7
20260902170521 92 153 8.0 10.0 0.00 0.00 0.00 62 1017.7
20260902165516 92 152 8.0 10.0 0.00 0.00 0.00 63 1017.8
20260902164532 92 155 7.0 9.0 0.00 0.00 0.00 62 1017.8
20260902163527 92 151 7.0 10.0 0.00 0.00 0.00 61 1017.9
20260902162522 92 152 8.0 10.0 0.00 0.00 0.00 62 1018.0
20260902161518 91 152 7.0 9.0 0.00 0.00 0.00 64 1018.0
20260902160533 90 130 7.0 9.0 0.00 0.00 0.00 65 1018.0
20260902155528 91 145 7.0 10.0 0.00 0.00 0.00 64 1017.9
20260902154523 90 144 8.0 9.0 0.00 0.00 0.00 66 1017.9
20260902153518 89 133 9.0 11.0 0.00 0.00 0.00 65 1017.9
20260902152533 90 140 7.0 9.0 0.00 0.00 0.00 64 1017.9
20260902151529 90 140 6.0 8.0 0.00 0.00 0.00 61 1017.9
20260902150524 90 145 8.0 10.0 0.00 0.00 0.00 61 1017.9
20260902145519 89 141 7.0 8.0 0.00 0.00 0.00 66 1017.9
20260902144534 88 128 7.0 9.0 0.00 0.00 0.00 65 1017.9
20260902143529 87 140 8.0 9.0 0.00 0.00 0.00 66 1017.9
20260902142524 86 133 7.0 9.0 0.00 0.00 0.00 69 1017.9
20260902141519 86 143 7.0 10.0 0.00 0.00 0.00 71 1017.9
20260902140535 85 143 7.0 9.0 0.00 0.00 0.00 73 1018.0
20260902135530 85 139 8.0 11.0 0.00 0.00 0.00 74 1018.0
20260902134525 84 140 8.0 9.0 0.00 0.00 0.00 76 1018.1
20260902133520 83 135 7.0 10.0 0.00 0.00 0.00 79 1018.1
20260902132535 83 143 7.0 10.0 0.00 0.00 0.00 79 1018.1
20260902131530 82 134 8.0 10.0 0.00 0.00 0.00 83 1018.3
20260902130526 80 136 8.0 10.0 0.00 0.00 0.00 87 1018.3
20260902125521 79 133 7.0 10.0 0.00 0.00 0.00 91 1018.3
20260902124516 78 137 8.0 9.0 0.00 0.00 0.00 97 1018.3
20260902123532 77 136 8.0 9.0 0.00 0.00 0.00 97 1018.5
20260902122526 77 136 8.0 10.0 0.00 0.00 0.00 97 1018.4
20260902121522 76 136 8.0 9.0 0.00 0.00 0.00 97 1018.5
20260902120517 76 134 9.0 10.0 0.00 0.00 0.00 97 1018.4
20260902115532 76 137 8.0 10.0 0.00 0.00 0.00 97 1018.4
20260902114528 75 138 8.0 10.0 0.00 0.00 0.00 97 1018.4
20260902113523 75 133 9.0 11.0 0.00 0.00 0.00 97 1018.3
20260902112518 75 133 9.0 11.0 0.00 0.00 0.00 97 1018.3
20260902111533 74 133 9.0 10.0 0.00 0.00 0.00 97 1018.3
20260902110528 74 129 8.0 11.0 0.00 0.00 0.00 97 1018.2
20260902105524 74 132 9.0 10.0 0.00 0.00 0.00 97 1018.1
20260902104519 74 136 9.0 11.0 0.00 0.00 0.00 97 1018.1
20260902103534 75 132 9.0 10.0 0.00 0.00 0.00 97 1018.0
20260902102529 75 132 9.0 10.0 0.00 0.00 0.00 97 1017.9
20260902101524 75 132 9.0 10.0 0.00 0.00 0.00 97 1017.7
20260902100520 75 135 9.0 11.0 0.00 0.00 0.00 97 1017.7
20260902095535 75 131 9.0 11.0 0.00 0.00 0.00 97 1017.7
20260902094530 75 127 8.0 10.0 0.00 0.00 0.00 97 1017.5